Other Public Products
Issued by NWS Charleston, SC

Current Version | Previous Version | Graphics & Text | Print | Product List | Glossary On
Versions: 1 2 3 4 5 6 7 8 9 10 11 12 13 14 15 16 17 18 19 20 21 22 23 24 25 26 27 28 29 30 31 32 33 34 35 36 37 38 39 40 41 42 43 44 45 46 47 48 49 50
000
FPUS82 KCHS 071027
OPUCHS

TEST...KCHS/KSAV Gateway Observations...TEST
National Weather Service Charleston SC
500 AM EST WED DEC 07 2016

NOTE: "fair" indicates few or no clouds below 12,000 feet with no
significant weather and/or obstructions to visibility.

SCZ050-WAZ558-NCZ071-TXZ119-213-PAZ071-DCZ001-FLZ074-172-MI076-
NYZ176-178-MAZ016-IL014-TNZ027-NJZ106-GAZ044-MD014-071100-
...Gateway Observations for Charleston International...

CITY           SKY/WX    TMP DP  RH WIND       PRES   REMARKS
Chas Airport   CLOUDY    53  50  89 N7        29.97R
Seattle        PTCLDY    31  26  82 NE8       30.39R WCI  23
Charlotte      FOG       43  42  97 N3        29.98R VSB 1/2
Dallas DFW     PTCLDY    38  32  79 N6        30.05S WCI  33
Dallas Love    PTCLDY    42  36  79 N3        30.07S
Philladelphia  CLOUDY    41  39  93 N8        29.91R FOG
Wash National  CLOUDY    43  41  93 N6        29.94R
Baltimore      CLOUDY    41  41 100 NW3       29.92R
Miami          MOCLDY    76  73  91 W3        30.00R
Detroit        MOCLDY    31  24  75 SW9       29.97R WCI  23
Newark         CLOUDY    39  37  92 N13       29.90S WCI  31
Laguardia      CLOUDY    41  38  89 NE10      29.90S FOG
J F K          CLOUDY    43  39  86 N9        29.90S
Boston Logan   LGT RAIN  40  36  86 E13       29.93R WCI  32
Ft. Lauderdale PTCLDY    75  72  90 W3        29.99R
Chicago O`Hare MOCLDY    25  17  72 W14       30.01R WCI  13
Chicago Midway PTCLDY    27  16  63 W14       30.03R WCI  16
Houston Bush   PTCLDY    48  45  89 CALM      30.05R
Houston Hobby  PTCLDY    50  47  89 N5        30.03F
Nashville      CLOUDY    39  31  72 NE8       30.12S WCI  33
Atlanta        PTCLDY    47  43  86 NW10      29.98S

$$

GAZ044-118-TXZ119-213-NCZ071-DCZ001-MDZ014-506-PAZ021-071-NJZ106-
NYZ176-178-MAZ106-OHZ011-021-055-MIZ076-KYZ091-ILZ014-INZ047-
MNZ060-071100-
...Gateway Observations for Savannah International...

CITY           SKY/WX    TMP DP  RH WIND       PRES   REMARKS
Savannah Arpt  PTCLDY    50  48  93 CALM      30.00R FOG
Atlanta        PTCLDY    47  43  86 NW10      29.98S
Charlotte      FOG       43  42  97 N3        29.98R VSB 1/2
Dallas DFW     PTCLDY    38  32  79 N6        30.05S WCI  33
Houston Bush   PTCLDY    48  45  89 CALM      30.05R
Wash National  CLOUDY    43  41  93 N6        29.94R
Wash Dulles    CLOUDY    40  37  89 NW3       29.94R
Baltimore      CLOUDY    41  41 100 NW3       29.92R
Philadelphia   CLOUDY    41  39  93 N8        29.91R FOG
Newark         CLOUDY    39  37  92 N13       29.90S WCI  31
Laguardia      CLOUDY    41  38  89 NE10      29.90S FOG
J F K          CLOUDY    43  39  86 N9        29.90S
Boston         LGT RAIN  40  36  86 E13       29.93R WCI  32
Pittsburg      CLOUDY    39  32  76 W5        29.99R WCI  36
Akron          MOCLDY    34  26  72 W7        29.99R WCI  28
Cleveland      CLOUDY    34  27  75 SW9       30.02R WCI  27
Cincinnati     MOCLDY    31  27  85 W5        30.10R WCI  26
Columbus         N/A     28  26  93 W5        30.07R WCI  23
Detroit        MOCLDY    31  24  75 SW9       29.97R WCI  23
Chicago O`Hare MOCLDY    25  17  72 W14       30.01R WCI  13
Minneapolis    LGT SNOW  17  10  74 W14G24    29.92R WCI   3
Indianapolis   PTCLDY    26  20  77 CALM      30.07F

$$




USA.gov is the U.S. government's official web portal to all federal, state and local government web resources and services.